Погода в Березовке

Россия / Белгородская область     50°32′10″N   35°53′33″E
темп.,
°C
ветер,
м/с
пор.,
м/с
влажн.,
%
обл.,
%
осадки,
мм/ч
давл.,
гПа
погр.,
м
16 апреля, пт
пт1600:00+7ююв378916 0.1 1013271
03:00+8юв378597 0.1 1013420
06:00+7юв4987100 0.1 1014460
09:00+8ююв6782100 0.1 10151006
12:00+9ююв6876100 0.1 1015913
15:00+11ююв676892 0.6 10161134
18:00+11ююв576560 0.1 10151124
21:00+8ю498268 0.3 1016307
17 апреля, сб
сб1700:00+7ююв258986 0.1 1017225
03:00+5всв11885 3.3 101715
06:00+4юв359495 0.0 1018167
09:00+6юз447689 0.0 1018735
12:00+9юз345987 0.0 10181317
15:00+9юз456265 0.1 10191177
18:00+7ююз468098 0.1 1019458
21:00+6юз478749 0.4 1019301
18 апреля, вс
вс1800:00+6ююз4785100 0.1 1019343
03:00+6ююз4885100 0.2 1019352
06:00+5юз3791100 0.5 1019804
09:00+7юв6981100 1.3 1018558
12:00+11ююз7106081 0.0 10171221
15:00+12ююз61053100 0.1 10161720
18:00+11зюз2668100 0.3 1016300
21:00+8с1286100 0.4 101772
19 апреля, пн
пн1900:00+9ююв118199 0.1 101723
03:00+8з2284100 0.1 101654
06:00+7з239496 0.0 101677
09:00+9ююз237992 0.0 1016402
12:00+14ю4652100 0.8 10151467
15:00+15юв3446100 0.9 10141505
18:00+15всв2551100 0.0 1012172
21:00+11вюв3780100 0.5 1012222
20 апреля, вт
вт2000:00+10в51187100 0.2 1009606
03:00+10в81490100 1.4 1005671
06:00+9в101895100 6.3 1000830
09:00+11вюв91894100 14.8 9961093
12:00+11ю51191100 3.3 995536
15:00+15ю1016645 4.3 9961812
18:00+11ююв7126967 0.2 9961108
21:00+9ююв91482100 0.8 9971287